Waterville, ME

7:39 PM EDT on April 24, 2018 (GMT -0400)
Waterville Lafleur

Weather History for KWVL - March, 2014

Change the Weather History Date:

Saturday, March 1, 2014

  Actual Average Record
Temperature  
Mean Temperature 11 °F -  
Max Temperature 26 °F 39 °F 56 °F (1974)
Min Temperature -4 °F 15 °F -17 °F (1982)
Degree Days  
Heating Degree Days 54    
Moisture  
Dew Point 0 °F    
Average Humidity 54    
Maximum Humidity 100    
Minimum Humidity 34    
Precipitation  
Precipitation 0.00 in - - ()
Sea Level Pressure  
Sea Level Pressure 30.23 in    
Wind  
Wind Speed 3 mph (South)    
Max Wind Speed 13 mph    
Max Gust Speed 24 mph    
Visibility 10 miles    
Events      
Averages and records for this station are not official NWS values.
T = Trace of Precipitation, MM = Missing Value Source: NWS Daily Summary

Daily Weather History Graph

Daily Weather History Graph

Search for Another Location

Airport or City:

Astronomy

Mar. 01, 2014 Rise Set
Actual Time 6:16 AM EST 5:26 PM EST
Civil Twilight 5:46 AM EST 5:55 PM EST
Nautical Twilight 5:13 AM EST 6:29 PM EST
Astronomical Twilight 4:39 AM EST 7:03 PM EST
Moon 6:05 AM EST (3/1) 6:13 PM EST (3/1)
Length of Visible Light 12h 08m
Length of Day
11h 10m
New Moon, 0% of the Moon is Illuminated
Mar 1
New Moon
Mar 8
First Quarter
Mar 16
Full
Mar 23
Last Quarter
Mar 30
New

Hourly Weather History & Observations

Time (EST) Temp. Windchill Dew Point Humidity Pressure Visibility Wind Dir Wind Speed Gust Speed Precip Events Conditions
12:15 AM 3.2 °F - -9.4 °F 56% 30.38 in 10.0 mi Calm Calm - N/A   Clear
12:35 AM 3.2 °F - -7.6 °F 61% 30.38 in 10.0 mi Calm Calm - N/A   Clear
12:55 AM 3.2 °F - -9.4 °F 56% 30.38 in 10.0 mi Calm Calm - N/A   Clear
1:15 AM 1.4 °F - -9.4 °F 61% 30.38 in 10.0 mi Calm Calm - N/A   Clear
1:35 AM 1.4 °F - -9.4 °F 61% 30.38 in 10.0 mi Calm Calm - N/A   Clear
1:55 AM 1.4 °F -6.2 °F -9.4 °F 61% 30.37 in 10.0 mi North 3.5 mph - N/A   Clear
2:15 AM 1.4 °F - -9.4 °F 61% 30.37 in 10.0 mi Calm Calm - N/A   Clear
2:35 AM 1.4 °F - -7.6 °F 66% 30.38 in 10.0 mi Calm Calm - N/A   Clear
2:55 AM -0.4 °F - -9.4 °F 66% 30.38 in 10.0 mi Calm Calm - N/A   Clear
3:15 AM -0.4 °F - -9.4 °F 66% 30.38 in 10.0 mi Calm Calm - N/A   Clear
3:35 AM -0.4 °F - -9.4 °F 66% 30.37 in 10.0 mi Calm Calm - N/A   Clear
3:55 AM -0.4 °F - -7.6 °F 72% 30.37 in 10.0 mi Calm Calm - N/A   Clear
4:15 AM -0.4 °F - -7.6 °F 72% 30.38 in 10.0 mi Calm Calm - N/A   Clear
4:55 AM -2.2 °F -10.4 °F -7.6 °F 78% 30.37 in 10.0 mi NNE 3.5 mph - N/A   Clear
5:15 AM -2.2 °F - -7.6 °F 78% 30.36 in 10.0 mi Calm Calm - N/A   Clear
5:35 AM -2.2 °F - -7.6 °F 78% 30.37 in 10.0 mi Calm Calm - N/A   Clear
6:35 AM -4.0 °F - -13.0 °F 65% 30.36 in 10.0 mi Calm Calm - N/A   Unknown
6:55 AM -2.2 °F -10.4 °F -11.2 °F 66% 30.36 in 10.0 mi NE 3.5 mph - N/A   Clear
7:15 AM -0.4 °F -10.4 °F -9.4 °F 66% 30.37 in 10.0 mi NNE 4.6 mph - N/A   Clear
7:35 AM 1.4 °F -8.3 °F -9.4 °F 61% 30.36 in 10.0 mi NNE 4.6 mph - N/A   Clear
7:55 AM 1.4 °F -8.3 °F -14.8 °F 47% 30.37 in 10.0 mi North 4.6 mph - N/A   Clear
8:15 AM 3.2 °F -4.2 °F -13.0 °F 47% 30.37 in 10.0 mi NNE 3.5 mph - N/A   Partly Cloudy
8:35 AM 5.0 °F -2.1 °F -13.0 °F 43% 30.36 in 10.0 mi North 3.5 mph - N/A   Clear
8:55 AM 8.6 °F - -9.4 °F 44% 30.35 in 10.0 mi Calm Calm - N/A   Clear
9:15 AM 8.6 °F 0.1 °F -11.2 °F 40% 30.35 in 10.0 mi North 4.6 mph - N/A   Clear
9:35 AM 10.4 °F 4.0 °F -9.4 °F 41% 30.34 in 10.0 mi North 3.5 mph - N/A   Partly Cloudy
9:55 AM 10.4 °F 4.0 °F -9.4 °F 41% 30.34 in 10.0 mi NNE 3.5 mph - N/A   Scattered Clouds
10:15 AM 12.2 °F - -9.4 °F 38% 30.33 in 9.0 mi Calm Calm - N/A   Mostly Cloudy
10:35 AM 12.2 °F - -7.6 °F 41% 30.32 in 10.0 mi Calm Calm - N/A   Scattered Clouds
10:55 AM 14.0 °F 8.2 °F -4.0 °F 45% 30.31 in 4.0 mi North 3.5 mph - N/A   Mostly Cloudy
11:15 AM 15.8 °F - 1.4 °F 53% 30.30 in 10.0 mi Calm Calm - N/A   Scattered Clouds
11:35 AM 15.8 °F - -0.4 °F 49% 30.29 in 10.0 mi Calm Calm - N/A   Clear
11:55 AM 17.6 °F - -0.4 °F 45% 30.27 in 10.0 mi Calm Calm - N/A   Clear
12:35 PM 21.2 °F 16.4 °F 21.2 °F 100% 30.23 in 10.0 mi SSE 3.5 mph - N/A   Clear
12:55 PM 21.2 °F 13.6 °F 6.8 °F 54% 30.21 in 10.0 mi South 5.8 mph - N/A   Clear
1:15 PM 24.8 °F 15.3 °F 6.8 °F 46% 30.18 in 10.0 mi South 9.2 mph - N/A   Clear
1:35 PM 24.8 °F 15.3 °F 6.8 °F 46% 30.18 in 10.0 mi South 9.2 mph 16.1 mph N/A   Clear
1:55 PM 26.6 °F 16.8 °F 3.2 °F 37% 30.16 in 10.0 mi South 10.4 mph 17.3 mph N/A   Partly Cloudy
2:15 PM 26.6 °F 17.5 °F 1.4 °F 34% 30.15 in 10.0 mi South 9.2 mph 24.2 mph N/A   Clear
2:35 PM 26.6 °F 16.8 °F 3.2 °F 37% 30.13 in 10.0 mi South 10.4 mph 19.6 mph N/A   Clear
3:15 PM - - - N/A% 30.12 in 10.0 mi SSW 9.2 mph 17.3 mph N/A   Partly Cloudy
3:35 PM 26.6 °F 15.7 °F 8.6 °F 47% 30.12 in 10.0 mi South 12.7 mph 23.0 mph N/A   Clear
3:55 PM 26.6 °F 16.8 °F 8.6 °F 47% 30.11 in 10.0 mi SSW 10.4 mph 16.1 mph N/A   Clear
4:15 PM 26.6 °F 17.5 °F 8.6 °F 47% 30.10 in 10.0 mi South 9.2 mph - N/A   Clear
4:35 PM 26.6 °F 19.1 °F 10.4 °F 51% 30.09 in 10.0 mi South 6.9 mph 18.4 mph N/A   Clear
4:55 PM 26.6 °F 17.5 °F 10.4 °F 51% 30.09 in 10.0 mi SSW 9.2 mph 20.7 mph N/A   Scattered Clouds
5:15 PM 26.6 °F 18.2 °F 10.4 °F 51% 30.09 in 10.0 mi South 8.1 mph - N/A   Partly Cloudy
5:35 PM 26.6 °F 18.2 °F 10.4 °F 51% 30.08 in 10.0 mi South 8.1 mph 17.3 mph N/A   Clear
5:55 PM 26.6 °F 18.2 °F 12.2 °F 55% 30.08 in 10.0 mi SSW 8.1 mph - N/A   Partly Cloudy
6:15 PM 26.6 °F 20.0 °F 10.4 °F 51% 30.07 in 10.0 mi South 5.8 mph - N/A   Mostly Cloudy
6:35 PM 26.6 °F 18.2 °F 10.4 °F 51% 30.07 in 10.0 mi SSW 8.1 mph - N/A   Scattered Clouds
6:55 PM 26.6 °F 20.0 °F 8.6 °F 47% 30.07 in 10.0 mi SSW 5.8 mph - N/A   Partly Cloudy
7:15 PM 26.6 °F 20.0 °F 8.6 °F 47% 30.07 in 10.0 mi South 5.8 mph - N/A   Partly Cloudy
7:35 PM 26.6 °F 19.1 °F 8.6 °F 47% 30.06 in 10.0 mi South 6.9 mph - N/A   Partly Cloudy
7:55 PM 26.6 °F 20.0 °F 8.6 °F 47% 30.04 in 10.0 mi South 5.8 mph - N/A   Partly Cloudy
8:15 PM 26.6 °F 19.1 °F 8.6 °F 47% 30.03 in 10.0 mi South 6.9 mph - N/A   Mostly Cloudy
8:35 PM 26.6 °F 21.2 °F 8.6 °F 47% 30.02 in 10.0 mi South 4.6 mph - N/A   Mostly Cloudy
9:15 PM 26.6 °F 20.0 °F 10.4 °F 51% 30.04 in 10.0 mi SSW 5.8 mph - N/A   Overcast
9:35 PM 26.6 °F 21.2 °F 10.4 °F 51% 30.03 in 10.0 mi South 4.6 mph - N/A   Mostly Cloudy
10:15 PM 26.6 °F 20.0 °F 10.4 °F 51% 30.01 in 10.0 mi South 5.8 mph - N/A   Overcast
10:55 PM 26.6 °F 22.6 °F 12.2 °F 55% 29.98 in 10.0 mi South 3.5 mph - N/A   Overcast
11:35 PM 26.6 °F 21.2 °F 12.2 °F 55% 29.97 in 10.0 mi South 4.6 mph - N/A   Overcast
11:55 PM 26.6 °F 22.6 °F 12.2 °F 55% 29.96 in 10.0 mi South 3.5 mph - N/A   Overcast